This demonstration page uses our WeatherBlox Daily Observations layout. Learn more.

Left ArrowRight Arrow

Hourly Observations for May 21, 2022

Temp ( °F °C ) Dew Point ( °F °C ) Humidity (%) Winds ( mph kmh ) Pressure ( in mb ) Visibility ( mi km ) Precip ( " mm )
12:53 am 00:53 Cloudy 50 10 36 2.2 59 59 N 17 28 30.01 1016 10 16 0.00 0.00
1:53 am 01:53 Cloudy 49 9.4 35 1.7 59 59 N 22 35 30.03 1017 10 16 0.00 0.00
2:53 am 02:53 Cloudy 48 8.9 34 1.1 58 58 N 20 31 30.04 1017 10 16 0.00 0.00
3:53 am 03:53 Cloudy 47 8.3 33 0.6 59 59 N 16 26 30.04 1017 10 16 0.00 0.00
4:53 am 04:53 Cloudy 46 7.8 34 1.1 63 63 N 16 26 30.06 1018 10 16 0.00 0.00
5:53 am 05:53 Cloudy 46 7.8 32 0 58 58 N 15 24 30.11 1020 10 16 0.00 0.00
6:53 am 06:53 Cloudy 45 7.2 32 0 61 61 NNE 13 20 30.14 1021 10 16 0.00 0.00
7:53 am 07:53 Cloudy 46 7.8 32 0 58 58 NNE 14 22 30.17 1022 10 16 0.00 0.00
8:53 am 08:53 Cloudy 46 7.8 33 0.6 61 61 N 12 19 30.20 1023 10 16 0.00 0.00
9:53 am 09:53 Cloudy 47 8.3 32 0 56 56 N 16 26 30.23 1024 10 16 0.00 0.00
10:53 am 10:53 Partly Cloudy 50 10 32 0 50 50 N 13 20 30.24 1024 10 16 0.00 0.00
11:53 am 11:53 Partly Cloudy 51 10.6 30 -1.1 44 44 NNW 10 17 30.24 1024 10 16 0.00 0.00
12:53 pm 12:53 Mostly Cloudy 52 11.1 30 -1.1 43 43 N 10 17 30.24 1024 10 16 0.00 0.00
1:53 pm 13:53 Mostly Cloudy 55 12.8 32 0 42 42 WNW 12 19 30.23 1024 10 16 0.00 0.00
2:53 pm 14:53 Cloudy 56 13.3 29 -1.7 36 36 NNW 16 26 30.23 1024 10 16 0.00 0.00
3:53 pm 15:53 Mostly Cloudy 58 14.4 28 -2.2 32 32 NNW 17 28 30.22 1024 10 16 0.00 0.00
4:53 pm 16:53 Mostly Sunny 59 15 26 -3.3 28 28 NW 14 22 30.22 1023 10 16 0.00 0.00
5:53 pm 17:53 Mostly Sunny 59 15 27 -2.8 29 29 NNW 20 31 30.23 1024 10 16 0.00 0.00
6:53 pm 18:53 Mostly Sunny 58 14.4 27 -2.8 31 31 N 15 24 30.23 1024 10 16 0.00 0.00
7:53 pm 19:53 Sunny 57 13.9 27 -2.8 32 32 NNW 12 19 30.24 1024 10 16 0.00 0.00
8:53 pm 20:53 Clear 52 11.1 27 -2.8 38 38 NNW 9 15 30.27 1025 10 16 0.00 0.00
9:53 pm 21:53 Clear 48 8.9 28 -2.2 46 46 N 3 6 30.30 1026 10 16 0.00 0.00
10:53 pm 22:53 Clear 44 6.7 28 -2.2 53 53 Calm 30.32 1027 10 16 0.00 0.00
11:53 pm 23:53 Clear 44 6.7 29 -1.7 55 55 Calm 30.34 1027 7 11 0.00 0.00

Powered by AerisWeather